This is the latest recevied weather packets stored in our database for station/object VA7SHG-1. If no packets are shown the sender has not sent any weather packets the latest 10 day(s).
| Time | Temp. | Humidity | Pressure | Rain* | Wind** | Luminosity | Snow |
|---|---|---|---|---|---|---|---|
| 1777743927 | 17.78° C | 61% | 1018.2 hPa | 0 mm | - | 468 W/m² | - |
| 1777739761 | 17.22° C | 55% | 1018.6 hPa | 0 mm | - | 271 W/m² | - |
| 1777737927 | 16.11° C | 63% | 1018.8 hPa | 0 mm | - | 184 W/m² | - |
| 1777735543 | 15° C | 71% | 1018.7 hPa | 0 mm | - | 152 W/m² | - |
| 1777730728 | 13.33° C | 73% | 1018.4 hPa | 0 mm | - | 121 W/m² | - |
| 1777727721 | 11.67° C | 76% | 1017.7 hPa | 0 mm | - | 18 W/m² | - |
| 1777725321 | 12.22° C | 74% | 1017.4 hPa | 0 mm | - | 1 W/m² | - |
| 1777722940 | 12.78° C | 73% | 1017.4 hPa | 0 mm | - | 0 W/m² | - |
| 1777719928 | 12.78° C | 76% | 1017.2 hPa | 0 mm | - | 0 W/m² | - |
| 1777713320 | 13.89° C | 79% | 1017 hPa | 0 mm | - | 0 W/m² | - |
| 1777712141 | 13.89° C | 79% | 1017.1 hPa | 0 mm | - | 0 W/m² | - |
| 1777709721 | 14.44° C | 78% | 1017 hPa | 0 mm | - | 0 W/m² | - |
| 1777701321 | 16.11° C | 68% | 1016.4 hPa | 0 mm | - | 0 W/m² | - |
| 1777700728 | 16.67° C | 65% | 1016.2 hPa | 0 mm | - | 0 W/m² | - |
| 1777698920 | 17.78° C | 59% | 1015.9 hPa | 0 mm | - | 0 W/m² | - |
| 1777698350 | 18.33° C | 59% | 1015.9 hPa | 0 mm | - | 0 W/m² | - |
| 1777697129 | 18.89° C | 55% | 1015.7 hPa | 0 mm | - | 0 W/m² | - |
| 1777696520 | 18.89° C | 54% | 1015.6 hPa | 0 mm | - | 0 W/m² | - |
| 1777694122 | 20° C | 54% | 1015.1 hPa | 0 mm | - | 0 W/m² | - |
| 1777693549 | 20.56° C | 54% | 1015 hPa | 0 mm | - | 0 W/m² | - |
| 1777692330 | 21.11° C | 52% | 1014.8 hPa | 0 mm | - | 4 W/m² | - |
| 1777690520 | 22.22° C | 51% | 1014.5 hPa | 0 mm | - | 29 W/m² | - |
| 1777689930 | 22.22° C | 49% | 1014.4 hPa | 0 mm | - | 41 W/m² | - |
| 1777686921 | 24.44° C | 46% | 1014.4 hPa | 0 mm | - | 129 W/m² | - |
| 1777684522 | 26.67° C | 35% | 1014.3 hPa | 0 mm | - | 250 W/m² | - |
* Rain latest hour (hover to see other rain measurements)
** Current wind speed in m/s (hover to see current wind gust speed)